| time (UTC) | temp F | wind direction | speed MPH | gust MPH | rain 1hr in | rain 24hr in | rain mn in | humidity % | barometer mb |
| 20260507094510 | 34 | 359 | 0.0 | 0.0 | 0.00 | 0.35 | 0.00 | 94 | 1013.1 |
| 20260507093010 | 34 | 359 | 0.0 | 1.0 | 0.00 | 0.35 | 0.00 | 94 | 1013.1 |
| 20260507091510 | 34 | 359 | 0.0 | 1.0 | 0.00 | 0.35 | 0.00 | 94 | 1013.1 |
| 20260507090008 | 34 | 359 | 0.0 | 1.0 | 0.00 | 0.35 | 0.00 | 94 | 1013.2 |
| 20260507084508 | 34 | 359 | 0.0 | 1.0 | 0.00 | 0.35 | 0.00 | 95 | 1013.3 |
| 20260507083006 | 34 | 359 | 0.0 | 1.0 | 0.00 | 0.35 | 0.00 | 95 | 1013.3 |
| 20260507081508 | 35 | 359 | 0.0 | 1.0 | 0.00 | 0.35 | 0.00 | 94 | 1013.2 |
| 20260507080006 | 35 | 359 | 0.0 | 1.0 | 0.00 | 0.36 | 0.00 | 94 | 1013.1 |
| 20260507074503 | 35 | 359 | 0.0 | 1.0 | 0.00 | 0.36 | 0.00 | 93 | 1013.1 |
| 20260507073001 | 36 | 359 | 0.0 | 2.0 | 0.00 | 0.36 | 0.00 | 93 | 1013.1 |
| 20260507071502 | 37 | 359 | 0.0 | 2.0 | 0.00 | 0.36 | 0.00 | 93 | 1013.0 |
| 20260507070106 | 37 | 359 | 0.0 | 2.0 | 0.00 | 0.36 | 0.00 | 92 | 1012.9 |
| 20260507064558 | 38 | 359 | 0.0 | 3.0 | 0.00 | 0.36 | 0.00 | 92 | 1013.0 |
| 20260507063057 | 38 | 359 | 1.0 | 3.0 | 0.00 | 0.36 | 0.00 | 92 | 1013.0 |
| 20260507061549 | 38 | 359 | 0.0 | 3.0 | 0.00 | 0.36 | 0.00 | 92 | 1013.0 |
| 20260507060056 | 38 | 359 | 0.0 | 3.0 | 0.00 | 0.36 | 0.00 | 93 | 1013.0 |
| 20260507054545 | 38 | 359 | 1.0 | 4.0 | 0.00 | 0.36 | 0.00 | 93 | 1013.2 |
| 20260507053043 | 39 | 359 | 1.0 | 3.0 | 0.00 | 0.36 | 0.00 | 94 | 1013.1 |
| 20260507051549 | 39 | 359 | 0.0 | 3.0 | 0.00 | 0.36 | 0.00 | 96 | 1012.8 |
| 20260507050046 | 40 | 359 | 1.0 | 4.0 | 0.00 | 0.36 | 0.00 | 97 | 1012.8 |
| 20260507044555 | 41 | 359 | 1.0 | 3.0 | 0.00 | 0.36 | 0.00 | 97 | 1013.1 |
| 20260507043056 | 41 | 359 | 0.0 | 2.0 | 0.00 | 0.36 | 0.00 | 97 | 1012.9 |
| 20260507041536 | 41 | 359 | 0.0 | 3.0 | 0.00 | 0.36 | 0.00 | 97 | 1012.9 |
| 20260507040033 | 41 | 359 | 0.0 | 3.0 | 0.00 | 0.36 | 0.36 | 97 | 1012.7 |
| 20260507034535 | 41 | 359 | 0.0 | 3.0 | 0.00 | 0.36 | 0.36 | 98 | 1012.6 |
| 20260507033034 | 41 | 359 | 0.0 | 3.0 | 0.00 | 0.36 | 0.36 | 98 | 1012.6 |
| 20260507031527 | 41 | 359 | 0.0 | 3.0 | 0.00 | 0.36 | 0.36 | 98 | 1012.3 |
| 20260507030026 | 42 | 359 | 0.0 | 3.0 | 0.00 | 0.36 | 0.36 | 98 | 1012.7 |
| 20260507024524 | 42 | 359 | 1.0 | 3.0 | 0.00 | 0.36 | 0.36 | 99 | 1012.2 |
| 20260507023024 | 42 | 359 | 0.0 | 2.0 | 0.00 | 0.36 | 0.36 | 99 | 1012.3 |
| 20260507021530 | 42 | 359 | 0.0 | 2.0 | 0.00 | 0.36 | 0.36 | 99 | 1012.5 |
| 20260507020044 | 42 | 359 | 0.0 | 1.0 | 0.00 | 0.36 | 0.36 | 99 | 1012.8 |
| 20260507014528 | 42 | 359 | 0.0 | 1.0 | 0.00 | 0.36 | 0.36 | 99 | 1012.3 |
| 20260507013028 | 43 | 359 | 0.0 | 1.0 | 0.00 | 0.36 | 0.36 | 99 | 1012.8 |
| 20260507011535 | 43 | 359 | 0.0 | 0.0 | 0.00 | 0.36 | 0.36 | 99 | 1012.6 |
| 20260507010026 | 43 | 359 | 0.0 | 1.0 | 0.00 | 0.36 | 0.36 | 99 | 1012.5 |
| 20260507004521 | 43 | 359 | 0.0 | 2.0 | 0.00 | 0.36 | 0.36 | 99 | 1012.2 |
| 20260507003019 | 43 | 359 | 0.0 | 2.0 | 0.00 | 0.36 | 0.36 | 99 | 1012.0 |
| 20260507001544 | 43 | 359 | 0.0 | 3.0 | 0.00 | 0.36 | 0.36 | 99 | 1011.8 |
| 20260507000020 | 43 | 359 | 1.0 | 3.0 | 0.00 | 0.36 | 0.36 | 99 | 1011.4 |
| 20260506234516 | 43 | 359 | 1.0 | 3.0 | 0.00 | 0.36 | 0.36 | 99 | 1011.2 |
| 20260506233017 | 43 | 359 | 0.0 | 3.0 | 0.00 | 0.36 | 0.36 | 99 | 1010.9 |
| 20260506231518 | 43 | 359 | 1.0 | 2.0 | 0.00 | 0.36 | 0.36 | 99 | 1010.7 |
| 20260506230016 | 44 | 359 | 0.0 | 3.0 | 0.00 | 0.36 | 0.36 | 99 | 1010.7 |
| 20260506224516 | 43 | 359 | 0.0 | 3.0 | 0.00 | 0.36 | 0.36 | 99 | 1010.6 |
| 20260506223019 | 43 | 359 | 1.0 | 4.0 | 0.00 | 0.36 | 0.36 | 99 | 1010.7 |
| 20260506221507 | 43 | 359 | 1.0 | 3.0 | 0.00 | 0.36 | 0.36 | 99 | 1010.5 |
| 20260506220004 | 44 | 359 | 1.0 | 4.0 | 0.00 | 0.36 | 0.36 | 99 | 1010.2 |
| 20260506214502 | 44 | 359 | 2.0 | 5.0 | 0.00 | 0.36 | 0.36 | 99 | 1009.8 |
| 20260506213106 | 44 | 359 | 2.0 | 5.0 | 0.00 | 0.36 | 0.36 | 99 | 1009.6 |
| 20260506211504 | 44 | 359 | 2.0 | 6.0 | 0.00 | 0.36 | 0.36 | 99 | 1009.3 |
| 20260506210006 | 44 | 359 | 2.0 | 6.0 | 0.00 | 0.43 | 0.36 | 99 | 1009.1 |
| 20260506204501 | 44 | 359 | 2.0 | 5.0 | 0.00 | 0.43 | 0.36 | 99 | 1009.1 |
| 20260506203121 | 44 | 359 | 3.0 | 6.0 | 0.00 | 0.43 | 0.36 | 99 | 1008.9 |
| 20260506201557 | 44 | 359 | 3.0 | 8.0 | 0.00 | 0.43 | 0.36 | 99 | 1008.5 |
| 20260506200058 | 44 | 359 | 3.0 | 8.0 | 0.00 | 0.43 | 0.36 | 98 | 1008.4 |
| 20260506194555 | 45 | 359 | 2.0 | 5.0 | 0.00 | 0.43 | 0.36 | 99 | 1008.3 |
| 20260506193104 | 45 | 359 | 3.0 | 6.0 | 0.01 | 0.43 | 0.36 | 99 | 1008.1 |
| 20260506191550 | 45 | 359 | 3.0 | 6.0 | 0.01 | 0.43 | 0.36 | 99 | 1008.1 |
| 20260506190052 | 45 | 359 | 3.0 | 9.0 | 0.01 | 0.43 | 0.36 | 98 | 1007.8 |
| 20260506184550 | 45 | 359 | 4.0 | 6.0 | 0.02 | 0.43 | 0.36 | 98 | 1007.8 |
| 20260506183046 | 45 | 359 | 3.0 | 6.0 | 0.02 | 0.42 | 0.35 | 98 | 1007.7 |
| 20260506181550 | 46 | 359 | 2.0 | 4.0 | 0.02 | 0.42 | 0.35 | 98 | 1007.4 |
| 20260506180042 | 46 | 359 | 2.0 | 4.0 | 0.02 | 0.42 | 0.35 | 98 | 1007.2 |
| 20260506174541 | 46 | 359 | 1.0 | 3.0 | 0.01 | 0.41 | 0.34 | 98 | 1006.9 |
| 20260506173044 | 49 | 359 | 0.0 | 3.0 | 0.00 | 0.40 | 0.33 | 96 | 1006.9 |
| 20260506171537 | 53 | 339 | 0.0 | 4.0 | 0.00 | 0.40 | 0.33 | 99 | 1006.4 |
| 20260506170043 | 53 | 139 | 0.0 | 4.0 | 0.00 | 0.40 | 0.33 | 99 | 1006.2 |
| 20260506164550 | 53 | 115 | 0.0 | 4.0 | 0.00 | 0.40 | 0.33 | 99 | 1006.2 |
| 20260506163040 | 53 | 104 | 0.0 | 1.0 | 0.00 | 0.40 | 0.33 | 99 | 1006.3 |
| 20260506161534 | 53 | 135 | 0.0 | 3.0 | 0.00 | 0.40 | 0.33 | 99 | 1006.4 |
| 20260506160036 | 52 | 100 | 0.0 | 4.0 | 0.00 | 0.40 | 0.33 | 99 | 1006.3 |
| 20260506154533 | 52 | 103 | 0.0 | 2.0 | 0.01 | 0.40 | 0.33 | 99 | 1006.3 |
| 20260506153033 | 52 | 78 | 0.0 | 2.0 | 0.01 | 0.40 | 0.33 | 99 | 1006.1 |
| 20260506151537 | 52 | 108 | 0.0 | 3.0 | 0.01 | 0.40 | 0.33 | 99 | 1006.0 |
| 20260506150037 | 52 | 75 | 0.0 | 2.0 | 0.02 | 0.40 | 0.33 | 99 | 1006.2 |
| 20260506144533 | 52 | 98 | 0.0 | 4.0 | 0.02 | 0.39 | 0.32 | 99 | 1006.1 |
| 20260506143038 | 52 | 116 | 0.0 | 4.0 | 0.03 | 0.39 | 0.32 | 99 | 1006.3 |
| 20260506141543 | 51 | 104 | 0.0 | 3.0 | 0.04 | 0.39 | 0.32 | 99 | 1005.9 |
| 20260506140039 | 52 | 99 | 0.0 | 3.0 | 0.04 | 0.38 | 0.31 | 98 | 1005.7 |
| 20260506134538 | 52 | 100 | 0.0 | 3.0 | 0.05 | 0.37 | 0.30 | 98 | 1005.8 |
| 20260506133049 | 52 | 117 | 1.0 | 3.0 | 0.07 | 0.36 | 0.28 | 98 | 1005.9 |
| 20260506131527 | 52 | 106 | 0.0 | 3.0 | 0.09 | 0.35 | 0.28 | 98 | 1005.9 |
| 20260506130027 | 52 | 110 | 0.0 | 2.0 | 0.10 | 0.34 | 0.27 | 98 | 1006.1 |
| 20260506124527 | 52 | 87 | 0.0 | 2.0 | 0.11 | 0.32 | 0.25 | 98 | 1006.4 |
| 20260506123025 | 52 | 51 | 0.0 | 2.0 | 0.12 | 0.30 | 0.23 | 98 | 1006.9 |
| 20260506121525 | 52 | 21 | 0.0 | 2.0 | 0.10 | 0.26 | 0.19 | 97 | 1006.9 |
| 20260506120046 | 52 | 126 | 0.0 | 2.0 | 0.10 | 0.24 | 0.17 | 97 | 1006.7 |
| 20260506114523 | 52 | 134 | 0.0 | 2.0 | 0.08 | 0.22 | 0.15 | 97 | 1006.4 |
| 20260506113023 | 52 | 116 | 0.0 | 2.0 | 0.05 | 0.18 | 0.11 | 97 | 1006.4 |
| 20260506111522 | 52 | 95 | 0.0 | 1.0 | 0.04 | 0.16 | 0.09 | 96 | 1006.5 |
| 20260506110025 | 52 | 109 | 0.0 | 1.0 | 0.04 | 0.15 | 0.08 | 96 | 1006.5 |
| 20260506104531 | 52 | 108 | 0.0 | 1.0 | 0.05 | 0.14 | 0.07 | 96 | 1006.5 |
| 20260506103036 | 52 | 108 | 0.0 | 1.0 | 0.05 | 0.13 | 0.06 | 95 | 1006.4 |
| 20260506101527 | 52 | 75 | 0.0 | 0.0 | 0.04 | 0.12 | 0.05 | 95 | 1006.7 |
| 20260506100025 | 52 | 81 | 0.0 | 2.0 | 0.03 | 0.11 | 0.04 | 94 | 1006.6 |